Location: Castle
(40.7167°S, 175.9500°E)
Time: 02:21:38
(UTC+00:00)

Cosmos 1943 Rocket - Pass Details

Date: 04 August 2024
Orbit: 813 x 841 km, 71.0° (Epoch: 07 September)

Event Time Altitude Azimuth Distance (km) Brightness Sun altitude
Rises 18:06:57 0° 4° (N) 3,333 5.5 -13.8°
Reaches altitude 10° 18:09:33 10° 13° (NNE) 2,413 4.9 -13.3°
Maximum altitude 18:14:28 34° 76° (ENE) 1,347 4.1 -12.4°
Drops below altitude 10° 18:19:28 10° 139° (SE) 2,457 5.0 -11.5°
Sets 18:22:07 0° 147° (SSE) 3,403 5.6 -11.0°
